Time,TemperatureF,DewpointF,PressureIn,WindDirection,WindDirectionDegrees,WindSpeedMPH,WindSpeedGustMPH,Humidity,HourlyPrecipIn,Conditions,Clouds,dailyrainin,SoftwareType,DateUTC
2013-01-20 00:00:00,47.7,16.9,29.89,SSE,151,2.0,10.0,29,0.00,,,0.00,meteohub,2013-01-20 05:00:00,
2013-01-20 00:03:00,47.7,16.9,29.89,ESE,103,1.0,10.0,29,0.00,,,0.00,meteohub,2013-01-20 05:03:00,
2013-01-20 00:07:00,47.7,17.8,29.89,SSE,167,2.0,11.0,30,0.00,,,0.00,meteohub,2013-01-20 05:07:00,
2013-01-20 00:12:00,47.3,17.4,29.90,East,101,5.0,11.0,30,0.00,,,0.00,meteohub,2013-01-20 05:12:00,
2013-01-20 00:17:00,46.9,17.8,29.90,SE,144,0.0,9.0,31,0.00,,,0.00,meteohub,2013-01-20 05:17:00,
2013-01-20 00:21:00,46.8,17.8,29.90,SSW,193,2.0,9.0,31,0.00,,,0.00,meteohub,2013-01-20 05:21:00,
2013-01-20 00:27:00,46.2,17.2,29.89,ESE,105,2.0,9.0,31,0.00,,,0.00,meteohub,2013-01-20 05:27:00,
2013-01-20 00:32:00,46.0,17.8,29.89,SSE,150,5.0,9.0,32,0.00,,,0.00,meteohub,2013-01-20 05:32:00,
2013-01-20 00:37:00,45.9,16.9,29.89,ESE,111,2.0,7.0,31,0.00,,,0.00,meteohub,2013-01-20 05:37:00,
2013-01-20 00:42:00,45.5,17.4,29.89,SE,132,1.0,7.0,32,0.00,,,0.00,meteohub,2013-01-20 05:42:00,
2013-01-20 00:47:00,45.3,17.2,29.88,SE,125,3.0,7.0,32,0.00,,,0.00,meteohub,2013-01-20 05:47:00,
2013-01-20 00:52:00,45.1,17.1,29.89,ESE,116,2.0,5.0,32,0.00,,,0.00,meteohub,2013-01-20 05:52:00,
2013-01-20 00:57:00,45.1,17.1,29.89,SE,127,1.0,4.0,32,0.00,,,0.00,meteohub,2013-01-20 05:57:00,
2013-01-20 01:02:00,45.0,16.9,29.89,ESE,116,2.0,4.0,32,0.00,,,0.00,meteohub,2013-01-20 06:02:00,
2013-01-20 01:07:00,44.6,17.2,29.89,SSE,159,2.0,5.0,33,0.00,,,0.00,meteohub,2013-01-20 06:07:00,
2013-01-20 01:12:00,45.0,16.9,29.89,ESE,122,3.0,5.0,32,0.00,,,0.00,meteohub,2013-01-20 06:12:00,
2013-01-20 01:17:00,45.3,15.6,29.89,ENE,64,2.0,5.0,30,0.00,,,0.00,meteohub,2013-01-20 06:17:00,
2013-01-20 01:22:00,45.9,16.2,29.88,ESE,114,3.0,5.0,30,0.00,,,0.00,meteohub,2013-01-20 06:22:00,
2013-01-20 01:28:00,46.2,16.5,29.88,ESE,115,4.0,4.0,30,0.00,,,0.00,meteohub,2013-01-20 06:28:00,
2013-01-20 01:34:00,46.8,16.2,29.88,SE,126,1.0,7.0,29,0.00,,,0.00,meteohub,2013-01-20 06:34:00,
2013-01-20 01:40:00,46.9,17.1,29.88,ESE,104,1.0,7.0,30,0.00,,,0.00,meteohub,2013-01-20 06:40:00,
2013-01-20 01:46:00,47.1,17.2,29.88,South,186,1.0,7.0,30,0.00,,,0.00,meteohub,2013-01-20 06:46:00,
2013-01-20 01:52:00,47.3,17.4,29.88,ESE,109,3.0,7.0,30,0.00,,,0.00,meteohub,2013-01-20 06:52:00,
2013-01-20 01:57:00,47.3,18.1,29.88,NNE,16,2.0,7.0,31,0.00,,,0.00,meteohub,2013-01-20 06:57:00,
2013-01-20 02:04:00,47.3,18.9,29.88,South,182,1.0,5.0,32,0.00,,,0.00,meteohub,2013-01-20 07:04:00,
2013-01-20 02:10:00,47.3,18.9,29.88,SW,232,1.0,5.0,32,0.00,,,0.00,meteohub,2013-01-20 07:10:00,
2013-01-20 02:16:00,47.3,19.6,29.88,WNW,300,0.0,5.0,33,0.00,,,0.00,meteohub,2013-01-20 07:16:00,
2013-01-20 02:22:00,47.1,19.4,29.88,North,355,4.0,5.0,33,0.00,,,0.00,meteohub,2013-01-20 07:22:00,
2013-01-20 02:27:00,46.9,20.7,29.87,NW,311,2.0,5.0,35,0.00,,,0.00,meteohub,2013-01-20 07:27:00,
2013-01-20 02:32:00,46.8,21.2,29.87,West,270,2.0,7.0,36,0.00,,,0.00,meteohub,2013-01-20 07:32:00,
2013-01-20 02:37:00,46.6,21.0,29.87,WNW,294,1.0,7.0,36,0.00,,,0.00,meteohub,2013-01-20 07:37:00,
2013-01-20 02:43:00,46.6,21.7,29.87,WNW,299,4.0,7.0,37,0.00,,,0.00,meteohub,2013-01-20 07:43:00,
2013-01-20 02:49:00,46.8,22.5,29.87,WNW,284,3.0,7.0,38,0.00,,,0.00,meteohub,2013-01-20 07:49:00,
2013-01-20 02:55:00,47.1,22.8,29.87,WNW,288,5.0,7.0,38,0.00,,,0.00,meteohub,2013-01-20 07:55:00,
2013-01-20 03:01:00,47.5,23.2,29.87,West,261,6.0,8.0,38,0.00,,,0.00,meteohub,2013-01-20 08:01:00,
2013-01-20 03:07:00,47.5,23.2,29.86,West,277,3.0,8.0,38,0.00,,,0.00,meteohub,2013-01-20 08:07:00,
2013-01-20 03:12:00,47.7,23.9,29.86,WNW,303,3.0,7.0,39,0.00,,,0.00,meteohub,2013-01-20 08:12:00,
2013-01-20 03:17:00,47.8,24.1,29.86,NW,311,4.0,10.0,39,0.00,,,0.00,meteohub,2013-01-20 08:17:00,
2013-01-20 03:22:00,47.8,24.1,29.86,NW,306,4.0,10.0,39,0.00,,,0.00,meteohub,2013-01-20 08:22:00,
2013-01-20 03:27:00,47.8,24.1,29.86,NW,306,4.0,10.0,39,0.00,,,0.00,meteohub,2013-01-20 08:27:00,
2013-01-20 03:32:00,47.7,24.4,29.85,WNW,300,3.0,8.0,40,0.00,,,0.00,meteohub,2013-01-20 08:32:00,
2013-01-20 03:37:00,47.5,25.0,29.85,South,173,2.0,8.0,41,0.00,,,0.00,meteohub,2013-01-20 08:37:00,
2013-01-20 03:42:00,47.7,25.2,29.85,WNW,290,4.0,8.0,41,0.00,,,0.00,meteohub,2013-01-20 08:42:00,
2013-01-20 03:47:00,47.7,25.2,29.85,WNW,302,4.0,7.0,41,0.00,,,0.00,meteohub,2013-01-20 08:47:00,
2013-01-20 03:52:00,47.8,25.3,29.85,NNE,13,4.0,8.0,41,0.00,,,0.00,meteohub,2013-01-20 08:52:00,
2013-01-20 03:57:00,47.8,25.3,29.85,NNE,30,0.0,10.0,41,0.00,,,0.00,meteohub,2013-01-20 08:57:00,
2013-01-20 04:02:00,47.8,25.3,29.85,NW,317,2.0,10.0,41,0.00,,,0.00,meteohub,2013-01-20 09:02:00,
2013-01-20 04:07:00,47.7,25.7,29.84,NNW,330,3.0,10.0,42,0.00,,,0.00,meteohub,2013-01-20 09:07:00,
2013-01-20 04:12:00,47.7,26.2,29.85,WNW,302,1.0,10.0,43,0.00,,,0.00,meteohub,2013-01-20 09:12:00,
2013-01-20 04:17:00,47.7,26.2,29.84,NW,304,4.0,12.0,43,0.00,,,0.00,meteohub,2013-01-20 09:17:00,
2013-01-20 04:22:00,47.7,26.2,29.84,WNW,297,4.0,12.0,43,0.00,,,0.00,meteohub,2013-01-20 09:22:00,
2013-01-20 04:27:00,47.7,26.2,29.84,West,277,1.0,12.0,43,0.00,,,0.00,meteohub,2013-01-20 09:27:00,
2013-01-20 04:32:00,47.7,26.8,29.83,WNW,289,2.0,10.0,44,0.00,,,0.00,meteohub,2013-01-20 09:32:00,
2013-01-20 04:37:00,47.5,26.6,29.83,SSE,156,3.0,10.0,44,0.00,,,0.00,meteohub,2013-01-20 09:37:00,
2013-01-20 04:42:00,47.5,26.6,29.83,WNW,286,2.0,9.0,44,0.00,,,0.00,meteohub,2013-01-20 09:42:00,
2013-01-20 04:47:00,47.3,27.0,29.83,East,95,2.0,10.0,45,0.00,,,0.00,meteohub,2013-01-20 09:47:00,
2013-01-20 05:03:00,46.9,27.3,29.82,West,269,1.0,8.0,46,0.00,,,0.00,meteohub,2013-01-20 10:03:00,
2013-01-20 05:09:00,46.9,26.8,29.82,NW,304,5.0,7.0,45,0.00,,,0.00,meteohub,2013-01-20 10:09:00,
2013-01-20 05:15:00,46.9,27.3,29.82,West,281,1.0,12.0,46,0.00,,,0.00,meteohub,2013-01-20 10:15:00,
2013-01-20 05:21:00,46.8,27.1,29.81,NW,319,0.0,12.0,46,0.00,,,0.00,meteohub,2013-01-20 10:21:00,
2013-01-20 05:27:00,46.8,27.1,29.81,NW,307,1.0,12.0,46,0.00,,,0.00,meteohub,2013-01-20 10:27:00,
2013-01-20 05:32:00,46.6,27.5,29.82,NW,313,3.0,10.0,47,0.00,,,0.00,meteohub,2013-01-20 10:32:00,
2013-01-20 05:37:00,46.4,27.3,29.82,WNW,298,4.0,6.0,47,0.00,,,0.00,meteohub,2013-01-20 10:37:00,
2013-01-20 05:42:00,46.4,27.9,29.81,NNW,340,6.0,7.0,48,0.00,,,0.00,meteohub,2013-01-20 10:42:00,
2013-01-20 05:47:00,46.6,27.9,29.82,WNW,292,5.0,9.0,48,0.00,,,0.00,meteohub,2013-01-20 10:47:00,
2013-01-20 05:52:00,46.2,27.1,29.81,NW,312,3.0,9.0,47,0.00,,,0.00,meteohub,2013-01-20 10:52:00,
2013-01-20 05:57:00,45.9,27.3,29.81,NW,306,4.0,9.0,48,0.00,,,0.00,meteohub,2013-01-20 10:57:00,
2013-01-20 06:02:00,45.9,27.9,29.82,WNW,296,3.0,9.0,49,0.00,,,0.00,meteohub,2013-01-20 11:02:00,
2013-01-20 06:07:00,46.0,27.9,29.82,WNW,287,4.0,7.0,49,0.00,,,0.00,meteohub,2013-01-20 11:07:00,
2013-01-20 06:12:00,46.0,27.9,29.81,NW,326,6.0,13.0,49,0.00,,,0.00,meteohub,2013-01-20 11:12:00,
2013-01-20 06:17:00,46.0,27.9,29.81,NW,309,4.0,13.0,49,0.00,,,0.00,meteohub,2013-01-20 11:17:00,
2013-01-20 06:22:00,46.0,27.9,29.81,NW,323,7.0,13.0,49,0.00,,,0.00,meteohub,2013-01-20 11:22:00,
2013-01-20 06:28:00,46.2,28.0,29.81,WNW,297,3.0,11.0,49,0.00,,,0.00,meteohub,2013-01-20 11:28:00,
2013-01-20 06:34:00,45.9,28.2,29.81,WNW,298,4.0,11.0,50,0.00,,,0.00,meteohub,2013-01-20 11:34:00,
2013-01-20 06:40:00,45.9,28.2,29.81,NW,309,6.0,12.0,50,0.00,,,0.00,meteohub,2013-01-20 11:40:00,
2013-01-20 06:46:00,46.0,28.4,29.82,WNW,299,9.0,14.0,50,0.00,,,0.00,meteohub,2013-01-20 11:46:00,
2013-01-20 06:52:00,46.0,28.4,29.82,NW,310,5.0,14.0,50,0.00,,,0.00,meteohub,2013-01-20 11:52:00,
2013-01-20 06:57:00,45.9,28.2,29.82,WNW,282,8.0,11.0,50,0.00,,,0.00,meteohub,2013-01-20 11:57:00,
2013-01-20 07:04:00,45.9,28.8,29.82,WNW,298,7.0,12.0,51,0.00,,,0.00,meteohub,2013-01-20 12:04:00,
2013-01-20 07:10:00,45.7,28.6,29.83,NW,307,4.0,12.0,51,0.00,,,0.00,meteohub,2013-01-20 12:10:00,
2013-01-20 07:16:00,45.7,28.6,29.83,NW,311,6.0,12.0,51,0.00,,,0.00,meteohub,2013-01-20 12:16:00,
2013-01-20 07:22:00,45.5,28.9,29.83,NW,307,5.0,10.0,52,0.00,,,0.00,meteohub,2013-01-20 12:22:00,
2013-01-20 07:27:00,45.1,28.6,29.83,WNW,294,6.0,16.0,52,0.00,,,0.00,meteohub,2013-01-20 12:27:00,
2013-01-20 07:32:00,45.0,28.4,29.83,NNW,332,3.0,16.0,52,0.00,,,0.00,meteohub,2013-01-20 12:32:00,
2013-01-20 07:37:00,45.5,28.4,29.83,NW,311,5.0,12.0,51,0.00,,,0.00,meteohub,2013-01-20 12:37:00,
2013-01-20 07:42:00,45.1,28.9,29.84,NW,323,9.0,15.0,53,0.00,,,0.00,meteohub,2013-01-20 12:42:00,
2013-01-20 07:47:00,45.0,28.9,29.83,WNW,287,4.0,15.0,53,0.00,,,0.00,meteohub,2013-01-20 12:47:00,
2013-01-20 07:53:00,44.8,29.1,29.84,NNW,327,3.0,13.0,54,0.00,,,0.00,meteohub,2013-01-20 12:53:00,
2013-01-20 07:59:00,45.0,29.3,29.84,NW,305,3.0,12.0,54,0.00,,,0.00,meteohub,2013-01-20 12:59:00,
2013-01-20 08:05:00,44.8,29.1,29.83,NNW,341,6.0,11.0,54,0.00,,,0.00,meteohub,2013-01-20 13:05:00,
2013-01-20 08:11:00,45.0,29.8,29.84,WNW,296,5.0,14.0,55,0.00,,,0.00,meteohub,2013-01-20 13:11:00,
2013-01-20 08:17:00,45.1,29.5,29.84,WNW,299,4.0,14.0,54,0.00,,,0.00,meteohub,2013-01-20 13:17:00,
2013-01-20 08:22:00,45.3,30.0,29.84,NNW,327,15.0,15.0,55,0.00,,,0.00,meteohub,2013-01-20 13:22:00,
2013-01-20 08:48:00,45.3,29.1,29.84,NW,304,5.0,14.0,53,0.00,,,0.00,meteohub,2013-01-20 13:48:00,
2013-01-20 08:54:00,45.9,29.3,29.84,WNW,287,7.0,14.0,52,0.00,,,0.00,meteohub,2013-01-20 13:54:00,
2013-01-20 09:00:00,45.9,28.8,29.84,NNE,14,7.0,19.0,51,0.00,,,0.00,meteohub,2013-01-20 14:00:00,
2013-01-20 09:06:00,46.0,28.9,29.85,NW,309,7.0,19.0,51,0.00,,,0.00,meteohub,2013-01-20 14:06:00,
2013-01-20 09:12:00,46.0,28.9,29.85,NW,310,10.0,15.0,51,0.00,,,0.00,meteohub,2013-01-20 14:12:00,
2013-01-20 09:19:00,46.2,29.1,29.85,WNW,300,7.0,16.0,51,0.00,,,0.00,meteohub,2013-01-20 14:19:00,
2013-01-20 09:25:00,46.2,28.6,29.86,WNW,292,6.0,16.0,50,0.00,,,0.00,meteohub,2013-01-20 14:25:00,
2013-01-20 09:31:00,46.4,28.8,29.86,NW,313,10.0,18.0,50,0.00,,,0.00,meteohub,2013-01-20 14:31:00,
2013-01-20 09:37:00,46.6,28.9,29.85,NW,317,5.0,18.0,50,0.00,,,0.00,meteohub,2013-01-20 14:37:00,
2013-01-20 09:42:00,46.2,28.6,29.85,NW,306,6.0,18.0,50,0.00,,,0.00,meteohub,2013-01-20 14:42:00,
2013-01-20 09:49:00,46.4,28.8,29.86,North,350,11.0,16.0,50,0.00,,,0.00,meteohub,2013-01-20 14:49:00,
2013-01-20 09:55:00,46.6,28.4,29.86,WNW,302,6.0,17.0,49,0.00,,,0.00,meteohub,2013-01-20 14:55:00,
2013-01-20 10:01:00,46.6,27.9,29.86,NW,321,8.0,17.0,48,0.00,,,0.00,meteohub,2013-01-20 15:01:00,
2013-01-20 10:07:00,46.8,28.0,29.86,WNW,290,3.0,17.0,48,0.00,,,0.00,meteohub,2013-01-20 15:07:00,
2013-01-20 10:12:00,46.8,27.1,29.86,WNW,290,6.0,23.0,46,0.00,,,0.00,meteohub,2013-01-20 15:12:00,
2013-01-20 10:19:00,46.4,27.3,29.86,NW,321,8.0,23.0,47,0.00,,,0.00,meteohub,2013-01-20 15:19:00,
2013-01-20 10:25:00,46.6,27.5,29.87,WNW,299,7.0,20.0,47,0.00,,,0.00,meteohub,2013-01-20 15:25:00,
2013-01-20 10:31:00,46.9,27.3,29.87,NW,326,10.0,20.0,46,0.00,,,0.00,meteohub,2013-01-20 15:31:00,
2013-01-20 10:37:00,47.1,26.8,29.88,NNW,327,8.0,20.0,45,0.00,,,0.00,meteohub,2013-01-20 15:37:00,
2013-01-20 10:42:00,47.7,26.8,29.88,NNE,19,6.0,20.0,44,0.00,,,0.00,meteohub,2013-01-20 15:42:00,
2013-01-20 10:47:00,47.7,26.8,29.88,WNW,296,7.0,17.0,44,0.00,,,0.00,meteohub,2013-01-20 15:47:00,
2013-01-20 10:52:00,47.3,27.0,29.88,WNW,297,10.0,18.0,45,0.00,,,0.00,meteohub,2013-01-20 15:52:00,
2013-01-20 10:57:00,47.7,27.9,29.88,WNW,294,5.0,18.0,46,0.00,,,0.00,meteohub,2013-01-20 15:57:00,
2013-01-20 11:02:00,48.0,27.7,29.88,NW,312,4.0,15.0,45,0.00,,,0.00,meteohub,2013-01-20 16:02:00,
2013-01-20 11:07:00,48.0,26.1,29.88,WNW,302,9.0,13.0,42,0.00,,,0.00,meteohub,2013-01-20 16:07:00,
2013-01-20 11:12:00,47.8,27.0,29.88,WNW,286,6.0,15.0,44,0.00,,,0.00,meteohub,2013-01-20 16:12:00,
2013-01-20 11:17:00,48.0,27.7,29.88,WNW,291,4.0,15.0,45,0.00,,,0.00,meteohub,2013-01-20 16:17:00,
2013-01-20 11:22:00,48.6,26.4,29.88,WNW,291,7.0,13.0,42,0.00,,,0.00,meteohub,2013-01-20 16:22:00,
2013-01-20 11:27:00,48.0,24.8,29.87,WNW,291,11.0,14.0,40,0.00,,,0.00,meteohub,2013-01-20 16:27:00,
2013-01-20 11:32:00,47.8,25.3,29.87,NW,312,9.0,20.0,41,0.00,,,0.00,meteohub,2013-01-20 16:32:00,
2013-01-20 11:38:00,48.0,24.3,29.87,NNW,340,8.0,20.0,39,0.00,,,0.00,meteohub,2013-01-20 16:38:00,
2013-01-20 11:44:00,47.5,25.5,29.87,NW,315,7.0,20.0,42,0.00,,,0.00,meteohub,2013-01-20 16:44:00,
2013-01-20 11:50:00,47.8,26.4,29.87,NW,304,4.0,19.0,43,0.00,,,0.00,meteohub,2013-01-20 16:50:00,
2013-01-20 11:56:00,47.8,25.3,29.87,NW,325,6.0,15.0,41,0.00,,,0.00,meteohub,2013-01-20 16:56:00,
2013-01-20 12:02:00,47.7,25.7,29.87,NW,325,7.0,21.0,42,0.00,,,0.00,meteohub,2013-01-20 17:02:00,
2013-01-20 12:07:00,47.8,25.3,29.87,NW,322,6.0,21.0,41,0.00,,,0.00,meteohub,2013-01-20 17:07:00,
2013-01-20 12:12:00,47.8,25.9,29.86,North,355,6.0,21.0,42,0.00,,,0.00,meteohub,2013-01-20 17:12:00,
2013-01-20 12:17:00,47.8,24.6,29.86,NW,304,6.0,14.0,40,0.00,,,0.00,meteohub,2013-01-20 17:17:00,
2013-01-20 12:22:00,48.0,24.3,29.86,North,0,8.0,13.0,39,0.00,,,0.00,meteohub,2013-01-20 17:22:00,
2013-01-20 12:27:00,48.0,24.8,29.86,NW,309,5.0,15.0,40,0.00,,,0.00,meteohub,2013-01-20 17:27:00,
2013-01-20 12:32:00,47.8,22.8,29.87,NW,322,10.0,18.0,37,0.00,,,0.00,meteohub,2013-01-20 17:32:00,
2013-01-20 12:39:00,47.7,23.4,29.87,NW,324,6.0,20.0,38,0.00,,,0.00,meteohub,2013-01-20 17:39:00,
2013-01-20 12:45:00,47.8,24.1,29.87,NW,305,6.0,20.0,39,0.00,,,0.00,meteohub,2013-01-20 17:45:00,
2013-01-20 12:51:00,48.0,24.3,29.88,WNW,293,4.0,18.0,39,0.00,,,0.00,meteohub,2013-01-20 17:51:00,
2013-01-20 12:57:00,48.0,18.9,29.87,NW,315,6.0,18.0,31,0.00,,,0.00,meteohub,2013-01-20 17:57:00,
2013-01-20 13:02:00,47.8,17.1,29.87,NW,323,9.0,18.0,29,0.00,,,0.00,meteohub,2013-01-20 18:02:00,
2013-01-20 13:07:00,47.3,15.1,29.87,NW,317,7.0,26.0,27,0.00,,,0.00,meteohub,2013-01-20 18:07:00,
2013-01-20 13:12:00,47.1,13.1,29.87,WNW,302,8.0,26.0,25,0.00,,,0.00,meteohub,2013-01-20 18:12:00,
2013-01-20 13:18:00,46.9,13.8,29.88,NW,321,7.0,26.0,26,0.00,,,0.00,meteohub,2013-01-20 18:18:00,
2013-01-20 13:24:00,47.1,14.9,29.88,WNW,294,4.0,20.0,27,0.00,,,0.00,meteohub,2013-01-20 18:24:00,
2013-01-20 13:30:00,47.5,16.0,29.88,NW,313,7.0,19.0,28,0.00,,,0.00,meteohub,2013-01-20 18:30:00,
2013-01-20 13:37:00,47.1,14.9,29.89,NW,323,13.0,19.0,27,0.00,,,0.00,meteohub,2013-01-20 18:37:00,
2013-01-20 13:42:00,46.9,16.3,29.89,NW,304,8.0,19.0,29,0.00,,,0.00,meteohub,2013-01-20 18:42:00,
2013-01-20 13:47:00,46.8,13.6,29.89,NNW,335,8.0,16.0,26,0.00,,,0.00,meteohub,2013-01-20 18:47:00,
2013-01-20 13:52:00,46.9,15.4,29.90,NW,308,5.0,16.0,28,0.00,,,0.00,meteohub,2013-01-20 18:52:00,
2013-01-20 13:57:00,47.1,14.9,29.90,NW,324,5.0,16.0,27,0.00,,,0.00,meteohub,2013-01-20 18:57:00,
2013-01-20 14:02:00,46.9,14.7,29.90,NW,323,4.0,16.0,27,0.00,,,0.00,meteohub,2013-01-20 19:02:00,
2013-01-20 14:07:00,46.8,11.8,29.90,NW,326,6.0,11.0,24,0.00,,,0.00,meteohub,2013-01-20 19:07:00,
2013-01-20 14:12:00,46.6,12.6,29.91,NNW,338,6.0,15.0,25,0.00,,,0.00,meteohub,2013-01-20 19:12:00,
2013-01-20 14:19:00,45.9,10.2,29.91,NNW,328,9.0,15.0,23,0.00,,,0.00,meteohub,2013-01-20 19:19:00,
2013-01-20 14:25:00,45.7,10.0,29.91,NW,305,7.0,16.0,23,0.00,,,0.00,meteohub,2013-01-20 19:25:00,
2013-01-20 14:31:00,45.5,9.9,29.92,NW,323,9.0,16.0,23,0.00,,,0.00,meteohub,2013-01-20 19:31:00,
2013-01-20 14:37:00,45.3,10.6,29.92,NW,321,6.0,13.0,24,0.00,,,0.00,meteohub,2013-01-20 19:37:00,
2013-01-20 14:42:00,45.1,9.5,29.93,NW,317,6.0,13.0,23,0.00,,,0.00,meteohub,2013-01-20 19:42:00,
2013-01-20 14:47:00,45.1,9.5,29.93,NNW,336,4.0,12.0,23,0.00,,,0.00,meteohub,2013-01-20 19:47:00,
2013-01-20 14:52:00,45.1,10.4,29.93,NNW,331,13.0,13.0,24,0.00,,,0.00,meteohub,2013-01-20 19:52:00,
2013-01-20 14:57:00,45.0,8.4,29.94,WNW,303,9.0,16.0,22,0.00,,,0.00,meteohub,2013-01-20 19:57:00,
2013-01-20 15:02:00,44.4,7.9,29.94,NNW,348,12.0,16.0,22,0.00,,,0.00,meteohub,2013-01-20 20:02:00,
2013-01-20 15:07:00,44.2,7.7,29.94,WNW,294,5.0,16.0,22,0.00,,,0.00,meteohub,2013-01-20 20:07:00,
2013-01-20 15:13:00,44.1,8.6,29.94,WNW,294,12.0,14.0,23,0.00,,,0.00,meteohub,2013-01-20 20:13:00,
2013-01-20 15:19:00,43.9,7.5,29.95,NW,322,7.0,17.0,22,0.00,,,0.00,meteohub,2013-01-20 20:19:00,
2013-01-20 15:25:00,43.5,7.2,29.96,NW,305,7.0,17.0,22,0.00,,,0.00,meteohub,2013-01-20 20:25:00,
2013-01-20 15:32:00,43.2,6.8,29.96,WNW,284,8.0,17.0,22,0.00,,,0.00,meteohub,2013-01-20 20:32:00,
2013-01-20 15:37:00,43.0,6.8,29.96,WNW,303,4.0,17.0,22,0.00,,,0.00,meteohub,2013-01-20 20:37:00,
2013-01-20 15:42:00,42.6,7.3,29.96,NW,320,4.0,17.0,23,0.00,,,0.00,meteohub,2013-01-20 20:42:00,
2013-01-20 15:47:00,42.4,8.2,29.96,WNW,300,8.0,15.0,24,0.00,,,0.00,meteohub,2013-01-20 20:47:00,
2013-01-20 15:52:00,42.3,9.0,29.97,NW,316,5.0,12.0,25,0.00,,,0.00,meteohub,2013-01-20 20:52:00,
2013-01-20 15:59:00,42.1,8.8,29.97,NW,308,5.0,14.0,25,0.00,,,0.00,meteohub,2013-01-20 20:59:00,
2013-01-20 16:05:00,41.9,9.5,29.97,WNW,299,5.0,14.0,26,0.00,,,0.00,meteohub,2013-01-20 21:05:00,
2013-01-20 16:11:00,41.7,10.2,29.98,NW,305,6.0,13.0,27,0.00,,,0.00,meteohub,2013-01-20 21:11:00,
2013-01-20 16:17:00,41.5,10.0,29.97,NW,312,4.0,13.0,27,0.00,,,0.00,meteohub,2013-01-20 21:17:00,
2013-01-20 16:22:00,41.4,9.9,29.97,NW,312,8.0,14.0,27,0.00,,,0.00,meteohub,2013-01-20 21:22:00,
2013-01-20 16:29:00,41.2,9.7,29.97,NNW,338,8.0,14.0,27,0.00,,,0.00,meteohub,2013-01-20 21:29:00,
2013-01-20 16:35:00,40.8,9.3,29.98,NNW,327,5.0,11.0,27,0.00,,,0.00,meteohub,2013-01-20 21:35:00,
2013-01-20 16:41:00,40.3,9.7,29.98,NW,304,6.0,11.0,28,0.00,,,0.00,meteohub,2013-01-20 21:41:00,
2013-01-20 16:47:00,40.3,9.0,29.98,NW,316,4.0,9.0,27,0.00,,,0.00,meteohub,2013-01-20 21:47:00,
2013-01-20 16:54:00,39.6,9.9,29.98,NW,325,5.0,12.0,29,0.00,,,0.00,meteohub,2013-01-20 21:54:00,
2013-01-20 17:00:00,39.6,9.9,29.99,NNW,327,9.0,12.0,29,0.00,,,0.00,meteohub,2013-01-20 22:00:00,
2013-01-20 17:06:00,39.6,9.9,29.99,NNW,329,8.0,13.0,29,0.00,,,0.00,meteohub,2013-01-20 22:06:00,
2013-01-20 17:12:00,39.0,10.2,29.99,NW,318,6.0,11.0,30,0.00,,,0.00,meteohub,2013-01-20 22:12:00,
2013-01-20 17:18:00,38.7,9.1,30.00,NNW,328,4.0,11.0,29,0.00,,,0.00,meteohub,2013-01-20 22:18:00,
2013-01-20 17:24:00,38.3,8.8,30.00,NW,325,10.0,11.0,29,0.00,,,0.00,meteohub,2013-01-20 22:24:00,
2013-01-20 17:30:00,38.1,8.6,30.00,NW,306,6.0,16.0,29,0.00,,,0.00,meteohub,2013-01-20 22:30:00,
2013-01-20 17:36:00,38.1,7.2,30.00,NW,310,7.0,16.0,27,0.00,,,0.00,meteohub,2013-01-20 22:36:00,
2013-01-20 17:42:00,38.1,7.9,30.01,NW,321,3.0,16.0,28,0.00,,,0.00,meteohub,2013-01-20 22:42:00,
2013-01-20 17:47:00,37.8,9.1,30.01,NW,325,4.0,14.0,30,0.00,,,0.00,meteohub,2013-01-20 22:47:00,
2013-01-20 17:52:00,37.9,7.7,30.01,NNW,327,6.0,14.0,28,0.00,,,0.00,meteohub,2013-01-20 22:52:00,
2013-01-20 17:58:00,37.8,9.1,30.02,WNW,294,4.0,16.0,30,0.00,,,0.00,meteohub,2013-01-20 22:58:00,
2013-01-20 18:04:00,37.4,8.8,30.01,NNW,327,2.0,16.0,30,0.00,,,0.00,meteohub,2013-01-20 23:04:00,
2013-01-20 18:10:00,37.4,9.5,30.02,NW,322,1.0,11.0,31,0.00,,,0.00,meteohub,2013-01-20 23:10:00,
2013-01-20 18:16:00,36.7,9.5,30.01,NNW,338,4.0,11.0,32,0.00,,,0.00,meteohub,2013-01-20 23:16:00,
2013-01-20 18:22:00,36.7,10.9,30.02,NNW,329,4.0,9.0,34,0.00,,,0.00,meteohub,2013-01-20 23:22:00,
2013-01-20 18:27:00,36.5,10.0,30.02,NNW,338,6.0,8.0,33,0.00,,,0.00,meteohub,2013-01-20 23:27:00,
2013-01-20 18:32:00,36.3,10.6,30.02,NNW,347,3.0,8.0,34,0.00,,,0.00,meteohub,2013-01-20 23:32:00,
2013-01-20 18:37:00,36.3,10.6,30.02,NW,313,4.0,8.0,34,0.00,,,0.00,meteohub,2013-01-20 23:37:00,
2013-01-20 18:43:00,36.3,10.0,30.03,NW,314,3.0,9.0,33,0.00,,,0.00,meteohub,2013-01-20 23:43:00,
2013-01-20 18:49:00,36.3,10.6,30.04,WNW,301,5.0,9.0,34,0.00,,,0.00,meteohub,2013-01-20 23:49:00,
2013-01-20 18:56:00,36.1,11.1,30.04,NNW,329,6.0,9.0,35,0.00,,,0.00,meteohub,2013-01-20 23:56:00,
2013-01-20 19:02:00,36.1,11.1,30.04,NNW,342,6.0,9.0,35,0.00,,,0.00,meteohub,2013-01-21 00:02:00,
2013-01-20 19:08:00,36.0,10.9,30.04,WNW,302,4.0,10.0,35,0.00,,,0.00,meteohub,2013-01-21 00:08:00,
2013-01-20 19:17:00,36.3,10.6,30.04,NW,304,3.0,11.0,34,0.00,,,0.00,meteohub,2013-01-21 00:17:00,
2013-01-20 19:24:00,36.1,11.1,30.04,NNW,342,4.0,11.0,35,0.00,,,0.00,meteohub,2013-01-21 00:24:00,
2013-01-20 19:30:00,36.0,11.7,30.04,NNW,339,2.0,9.0,36,0.00,,,0.00,meteohub,2013-01-21 00:30:00,
2013-01-20 19:36:00,35.4,11.7,30.05,NNW,334,3.0,7.0,37,0.00,,,0.00,meteohub,2013-01-21 00:36:00,
2013-01-20 19:42:00,35.1,10.8,30.05,NNW,332,2.0,6.0,36,0.00,,,0.00,meteohub,2013-01-21 00:42:00,
2013-01-20 19:47:00,35.1,11.5,30.05,NW,316,2.0,6.0,37,0.00,,,0.00,meteohub,2013-01-21 00:47:00,
2013-01-20 19:55:00,34.9,10.6,30.05,NNW,342,3.0,5.0,36,0.00,,,0.00,meteohub,2013-01-21 00:55:00,
2013-01-20 20:01:00,35.1,10.8,30.05,NNW,342,4.0,8.0,36,0.00,,,0.00,meteohub,2013-01-21 01:01:00,
2013-01-20 20:07:00,35.1,11.5,30.05,NNW,331,6.0,8.0,37,0.00,,,0.00,meteohub,2013-01-21 01:07:00,
2013-01-20 20:13:00,35.1,10.2,30.05,NW,309,2.0,8.0,35,0.00,,,0.00,meteohub,2013-01-21 01:13:00,
2013-01-20 20:19:00,34.9,11.3,30.05,NNW,335,2.0,8.0,37,0.00,,,0.00,meteohub,2013-01-21 01:19:00,
2013-01-20 20:25:00,34.7,11.7,30.05,NW,321,3.0,7.0,38,0.00,,,0.00,meteohub,2013-01-21 01:25:00,
2013-01-20 20:31:00,34.3,10.8,30.06,NNW,331,2.0,7.0,37,0.00,,,0.00,meteohub,2013-01-21 01:31:00,
2013-01-20 20:37:00,34.3,11.3,30.06,NW,326,1.0,8.0,38,0.00,,,0.00,meteohub,2013-01-21 01:37:00,
2013-01-20 20:42:00,34.2,11.1,30.06,NNW,329,2.0,8.0,38,0.00,,,0.00,meteohub,2013-01-21 01:42:00,
2013-01-20 20:47:00,34.0,11.7,30.06,North,5,0.0,8.0,39,0.00,,,0.00,meteohub,2013-01-21 01:47:00,
2013-01-20 20:52:00,34.0,12.2,30.06,NNW,348,3.0,7.0,40,0.00,,,0.00,meteohub,2013-01-21 01:52:00,
2013-01-20 20:59:00,33.4,12.2,30.06,NNW,333,2.0,7.0,41,0.00,,,0.00,meteohub,2013-01-21 01:59:00,
2013-01-20 21:05:00,33.3,12.0,30.06,NNW,337,0.0,6.0,41,0.00,,,0.00,meteohub,2013-01-21 02:05:00,
2013-01-20 21:11:00,33.1,11.3,30.06,NW,324,1.0,5.0,40,0.00,,,0.00,meteohub,2013-01-21 02:11:00,
2013-01-20 21:17:00,32.7,12.2,30.06,NW,305,0.0,5.0,42,0.00,,,0.00,meteohub,2013-01-21 02:17:00,
2013-01-20 21:22:00,32.5,11.5,30.06,NNW,340,2.0,5.0,41,0.00,,,0.00,meteohub,2013-01-21 02:22:00,
2013-01-20 21:29:00,32.5,12.6,30.06,NNW,329,1.0,6.0,43,0.00,,,0.00,meteohub,2013-01-21 02:29:00,
2013-01-20 21:36:00,32.4,11.8,30.06,NNW,335,6.0,7.0,42,0.00,,,0.00,meteohub,2013-01-21 02:36:00,
2013-01-20 21:42:00,32.5,12.6,30.06,NNW,328,0.0,7.0,43,0.00,,,0.00,meteohub,2013-01-21 02:42:00,
2013-01-20 21:47:00,32.4,12.4,30.07,NW,310,2.0,7.0,43,0.00,,,0.00,meteohub,2013-01-21 02:47:00,
2013-01-20 21:52:00,32.2,12.2,30.08,NNW,329,6.0,6.0,43,0.00,,,0.00,meteohub,2013-01-21 02:52:00,
2013-01-20 21:57:00,32.2,12.7,30.08,NNW,340,5.0,7.0,44,0.00,,,0.00,meteohub,2013-01-21 02:57:00,
2013-01-20 22:03:00,32.4,12.4,30.07,WNW,302,2.0,7.0,43,0.00,,,0.00,meteohub,2013-01-21 03:03:00,
2013-01-20 22:09:00,32.2,12.7,30.07,NNW,331,2.0,8.0,44,0.00,,,0.00,meteohub,2013-01-21 03:09:00,
2013-01-20 22:15:00,31.8,12.9,30.07,NW,321,1.0,8.0,45,0.00,,,0.00,meteohub,2013-01-21 03:15:00,
2013-01-20 22:21:00,31.8,12.9,30.07,NW,304,1.0,8.0,45,0.00,,,0.00,meteohub,2013-01-21 03:21:00,
2013-01-20 22:27:00,31.6,12.7,30.07,NNW,336,4.0,8.0,45,0.00,,,0.00,meteohub,2013-01-21 03:27:00,
2013-01-20 22:32:00,31.6,12.2,30.07,NW,323,7.0,8.0,44,0.00,,,0.00,meteohub,2013-01-21 03:32:00,
2013-01-20 22:37:00,31.6,13.3,30.07,NE,40,0.0,9.0,46,0.00,,,0.00,meteohub,2013-01-21 03:37:00,
2013-01-20 22:42:00,31.5,13.1,30.07,NW,316,1.0,9.0,46,0.00,,,0.00,meteohub,2013-01-21 03:42:00,
2013-01-20 22:49:00,31.5,12.0,30.08,NNW,339,4.0,9.0,44,0.00,,,0.00,meteohub,2013-01-21 03:49:00,
2013-01-20 22:55:00,31.5,12.6,30.08,NW,313,2.0,8.0,45,0.00,,,0.00,meteohub,2013-01-21 03:55:00,
2013-01-20 23:01:00,31.3,12.4,30.08,NNW,334,6.0,8.0,45,0.00,,,0.00,meteohub,2013-01-21 04:01:00,
2013-01-20 23:07:00,31.3,12.9,30.08,NW,319,4.0,8.0,46,0.00,,,0.00,meteohub,2013-01-21 04:07:00,
2013-01-20 23:12:00,30.9,13.1,30.08,NW,325,4.0,8.0,47,0.00,,,0.00,meteohub,2013-01-21 04:12:00,
2013-01-20 23:19:00,30.9,12.6,30.09,NNW,332,3.0,7.0,46,0.00,,,0.00,meteohub,2013-01-21 04:19:00,
2013-01-20 23:25:00,30.7,12.9,30.09,NNW,336,5.0,8.0,47,0.00,,,0.00,meteohub,2013-01-21 04:25:00,
2013-01-20 23:31:00,30.7,12.4,30.09,NNW,332,2.0,8.0,46,0.00,,,0.00,meteohub,2013-01-21 04:31:00,
2013-01-20 23:37:00,30.9,13.5,30.09,NNW,336,2.0,7.0,48,0.00,,,0.00,meteohub,2013-01-21 04:37:00,
2013-01-20 23:42:00,30.7,13.3,30.08,North,355,6.0,7.0,48,0.00,,,0.00,meteohub,2013-01-21 04:42:00,
2013-01-20 23:50:00,30.7,13.3,30.09,NNW,336,4.0,9.0,48,0.00,,,0.00,meteohub,2013-01-21 04:50:00,
2013-01-20 23:56:00,30.6,13.3,30.09,North,355,1.0,9.0,48,0.00,,,0.00,meteohub,2013-01-21 04:56:00,